{"data":{"norad_id":62055,"intl_designator":"2024-216Z","name":"STARLINK-32571","alt_names":[],"object_type":"PAYLOAD","status":"ACTIVE","operator":null,"country":"US","launch_date":"2024-11-21","launch_site_code":"AFETR","launch_vehicle":null,"mission":null,"orbit_class":"UNKNOWN","rcs_meters":null,"size_class":null,"mass_kg":null,"dimensions":null,"purposes":["comms"],"wikipedia_slug":null,"has_3d_model":false,"image_url":null,"decayed_at":null,"tle_current":{"epoch":"2026-09-21T06:32:50.487648Z","epoch_age_seconds":114675,"freshness":"FRESH","line1":"1 62055U 24216Z   26264.27280657  .00005356  00000+0  20403-3 0  9990","line2":"2 62055  42.9995 231.2402 0000908 270.7883  89.2864 15.27579220103892","mean_motion":15.2757922,"eccentricity":9.08e-5,"inclination_deg":42.9995,"raan_deg":231.2402,"arg_perigee_deg":270.7883,"mean_anomaly_deg":89.2864,"bstar":0.00020403,"rev_number":10389,"period_min":94.266796847367,"perigee_km":482.42843573166,"apogee_km":483.67442755084,"semimajor_km":6861.1884316413,"source":"CELESTRAK","updated_at":"2026-09-22T09:00:49.491187Z"}}}